Location: Simi Valley
(34.2690°N, 118.7810°W)
Time: 17:56:00
(UTC-07:00)

SAR-Lupe-1 - Visible Passes

Search period start: 05 July 2015 00:00
Search period end: 15 July 2015 00:00
Orbit: 481 x 485 km, 98.1° (Epoch: 28 July)

Date Brightness Start Highest point End Pass type
(mag) Time Alt. Az. Time Alt. Az. Time Alt. Az.
05 Jul 5.9 04:19:08 10° NE 04:22:15 28° E 04:25:24 10° SSE visible
06 Jul 6.9 03:55:39 10° ENE 03:57:21 13° E 03:59:13 10° SE visible
07 Jul 4.1 05:02:36 10° N 05:06:10 64° WNW 05:09:42 10° SSW visible
08 Jul 4.8 04:37:57 10° NNE 04:41:28 52° E 04:44:57 10° S visible
09 Jul 6.3 04:13:48 10° NE 04:16:38 23° E 04:19:34 10° SSE visible
10 Jul 7.1 03:51:05 10° E 03:51:42 10° E 03:52:33 10° ESE visible
10 Jul 4.9 05:21:58 10° N 05:25:16 34° WNW 05:28:32 10° SW visible
11 Jul 4.0 04:57:01 10° N 05:00:37 83° WNW 05:04:11 10° SSW visible
12 Jul 5.3 04:32:29 10° NNE 04:35:53 40° E 04:39:17 10° S visible
13 Jul 6.6 04:08:32 10° NE 04:11:02 18° E 04:13:38 10° SE visible
14 Jul 4.5 05:16:18 10° N 05:19:44 44° WNW 05:23:07 10° SSW visible
